Glendale Luke AFB, AZ

12:55 AM MST on November 17, 2019 (GMT -0700)
Luke Air Force Base

Weather History for KLUF - July, 2019

Change the Weather History Date:

Wednesday, July 31, 2019

  Actual Average Record
Temperature  
Mean Temperature 86 °F -  
Max Temperature 93 °F 107 °F 117 °F (1934)
Min Temperature 78 °F 77 °F 69 °F (1941)
Cooling Degree Days 20    
Growing Degree Days 36 (Base 50)    
Moisture  
Dew Point 70 °F    
Average Humidity 60    
Maximum Humidity 83    
Minimum Humidity 38    
Precipitation  
Precipitation 0.00 in - - ()
Sea Level Pressure  
Sea Level Pressure 29.90 in    
Wind  
Wind Speed 5 mph (ESE)    
Max Wind Speed 12 mph    
Max Gust Speed -    
Visibility 10 miles    
Events      
Averages and records for this station are not official NWS values.
T = Trace of Precipitation, MM = Missing Value Source: NWS Daily Summary

Daily Weather History Graph

Daily Weather History Graph

Search for Another Location

Airport or City:

Astronomy

Jul. 31, 2019 Rise Set
Actual Time 5:41 AM MST 7:30 PM MST
Civil Twilight 5:13 AM MST 7:57 PM MST
Nautical Twilight 4:40 AM MST 8:30 PM MST
Astronomical Twilight 4:05 AM MST 9:05 PM MST
Moon 5:01 AM MST (7/31) 7:31 PM MST (7/31)
Length of Visible Light 14h 43m
Length of Day
13h 49m
Waning Crescent, 0% of the Moon is Illuminated
Jul 31
Waning Crescent
Jul 31
New
Aug 7
First Quarter
Aug 15
Full
Aug 23
Last Quarter

Hourly Weather History & Observations

Time (MST) Temp. Heat Index Dew Point Humidity Pressure Visibility Wind Dir Wind Speed Gust Speed Precip Events Conditions
12:33 AM 78.8 °F - 73.4 °F 83% 29.93 in 10.0 mi NW 6.9 mph - N/A   Light Drizzle
12:58 AM 79.0 °F - 72.5 °F 80% 29.90 in 10.0 mi North 4.6 mph - 0.00 in   Light Drizzle
1:04 AM 78.8 °F - 73.4 °F 83% 29.90 in 10.0 mi North 5.8 mph - N/A   Partly Cloudy
1:24 AM 78.8 °F - 73.4 °F 83% 29.88 in 10.0 mi North 6.9 mph - N/A   Light Drizzle
1:33 AM 78.8 °F - 73.4 °F 83% 29.88 in 10.0 mi North 6.9 mph - N/A   Scattered Clouds
1:58 AM 79.0 °F - 72.5 °F 80% 29.88 in 10.0 mi NNW 3.5 mph - 0.00 in   Partly Cloudy
2:58 AM 79.2 °F - 72.0 °F 78% 29.88 in 10.0 mi Calm Calm - N/A   Clear
3:58 AM 80.2 °F 83.5 °F 70.0 °F 71% 29.93 in 10.0 mi Calm Calm - N/A   Mostly Cloudy
4:58 AM 80.2 °F 84.5 °F 72.7 °F 78% 29.90 in 10.0 mi SW 8.1 mph - N/A   Overcast
5:58 AM 79.5 °F - 73.8 °F 82% 29.92 in 10.0 mi WSW 8.1 mph - N/A   Overcast
6:58 AM 80.2 °F 84.3 °F 72.3 °F 77% 29.93 in 10.0 mi SW 3.5 mph - N/A   Overcast
7:48 AM 82.4 °F 87.2 °F 71.6 °F 70% 29.95 in 10.0 mi Calm Calm - N/A   Mostly Cloudy
7:59 AM 81.5 °F 86.1 °F 72.0 °F 73% 29.95 in 10.0 mi ENE 4.6 mph - 0.00 in   Mostly Cloudy
8:58 AM 85.3 °F 89.8 °F 70.2 °F 60% 29.96 in 10.0 mi Calm Calm - 0.00 in   Clear
9:58 AM 86.7 °F 91.4 °F 69.6 °F 57% 29.97 in 10.0 mi East 4.6 mph - N/A   Scattered Clouds
10:58 AM 87.8 °F 93.0 °F 70.2 °F 56% 29.96 in 10.0 mi East 8.1 mph - N/A   Scattered Clouds
11:11 AM 87.8 °F 92.6 °F 69.8 °F 55% 29.96 in 10.0 mi East 9.2 mph - N/A   Light Drizzle
11:15 AM 87.8 °F 92.6 °F 69.8 °F 55% 29.96 in 10.0 mi East 11.5 mph - N/A   Scattered Clouds
11:20 AM 89.6 °F 94.7 °F 69.8 °F 52% 29.95 in 10.0 mi SE 8.1 mph - N/A   Scattered Clouds
11:58 AM 89.1 °F 93.7 °F 69.6 °F 52% 29.94 in 10.0 mi East 4.6 mph - N/A   Mostly Cloudy
12:59 PM 89.4 °F 94.0 °F 68.9 °F 51% 29.93 in 10.0 mi SE 6.9 mph - N/A   Mostly Cloudy
2:16 PM 92.1 °F 95.7 °F 67.6 °F 44% 29.88 in 10.0 mi Variable 4.6 mph - 0.00 in   Scattered Clouds
3:30 PM 93.2 °F 94.9 °F 64.4 °F 38% 29.86 in 10.0 mi Variable 3.5 mph - N/A   Mostly Cloudy
3:58 PM 93.2 °F 95.3 °F 65.1 °F 39% 29.85 in 10.0 mi North 3.5 mph - N/A   Scattered Clouds
4:58 PM 93.4 °F 95.2 °F 64.6 °F 38% 29.85 in 10.0 mi SE 3.5 mph - N/A   Scattered Clouds
5:58 PM 93.4 °F 95.6 °F 65.3 °F 39% 29.84 in 10.0 mi Calm Calm - N/A   Partly Cloudy
6:58 PM 93.4 °F 95.2 °F 64.6 °F 38% 29.83 in 10.0 mi SSW 3.5 mph - N/A   Clear
7:58 PM 93.0 °F 95.9 °F 66.4 °F 41% 29.84 in 10.0 mi SW 5.8 mph - N/A   Scattered Clouds
8:58 PM 92.3 °F 95.6 °F 66.6 °F 43% 29.86 in 10.0 mi SW 3.5 mph - N/A   Clear
9:58 PM 91.0 °F 94.3 °F 66.7 °F 45% 29.86 in 10.0 mi Calm Calm - N/A   Clear
10:58 PM 89.4 °F 94.0 °F 68.9 °F 51% 29.87 in 10.0 mi South 5.8 mph - N/A   Mostly Cloudy
11:58 PM 87.8 °F 92.6 °F 69.6 °F 55% 29.87 in 10.0 mi South 4.6 mph - N/A   Clear